Overview Statistics Trail Chart Weather Telemetry Raw packets
 

This is the latest recevied weather packets stored in our database for station/object WI0K. If no packets are shown the sender has not sent any weather packets the latest 10 day(s).

<< 29 30 31 32 33 34 35 >>
Time Temp. Humidity Pressure Rain* Wind** Luminosity Snow
1788466954 31.67° C 21% 1016.2 hPa 0 mm - 840 W/m² -
1788466654 31.67° C 21% 1016.2 hPa 0 mm - 847 W/m² -
1788466353 31.67° C 22% 1016.2 hPa 0 mm - 856 W/m² -
1788466052 31.67° C 22% 1016.2 hPa 0 mm - 863 W/m² -
1788465751 31.67° C 23% 1016.3 hPa 0 mm - 872 W/m² -
1788465450 31.11° C 24% 1016.4 hPa 0 mm - 878 W/m² -
1788465150 31.11° C 23% 1016.5 hPa 0 mm - 883 W/m² -
1788464849 30.56° C 22% 1016.5 hPa 0 mm - 895 W/m² -
1788464548 30.56° C 21% 1016.6 hPa 0 mm - 902 W/m² -
1788464246 30° C 24% 1016.6 hPa 0 mm - 905 W/m² -
1788463946 30° C 24% 1016.6 hPa 0 mm - 909 W/m² -
1788463645 30.56° C 23% 1016.8 hPa 0 mm - 912 W/m² -
1788463344 30° C 22% 1016.8 hPa 0 mm - 919 W/m² -
1788463043 30.56° C 24% 1016.9 hPa 0 mm - 919 W/m² -
1788462743 31.11° C 22% 1016.9 hPa 0 mm - 921 W/m² -
1788462440 30.56° C 24% 1016.9 hPa 0 mm - 923 W/m² -
1788462140 30° C 24% 1017 hPa 0 mm - 926 W/m² -
1788461839 30° C 26% 1017.1 hPa 0 mm - 929 W/m² -
1788461538 30° C 22% 1017.1 hPa 0 mm - 931 W/m² -
1788461238 29.44° C 26% 1017.2 hPa 0 mm - 929 W/m² -
1788460937 29.44° C 24% 1017.4 hPa 0 mm - 928 W/m² -
1788460636 28.89° C 26% 1017.4 hPa 0 mm - 928 W/m² -
1788460336 28.89° C 26% 1017.4 hPa 0 mm - 928 W/m² -
1788460034 28.89° C 24% 1017.5 hPa 0 mm - 924 W/m² -
1788459733 29.44° C 24% 1017.5 hPa 0 mm - 920 W/m² -

* Rain latest hour (hover to see other rain measurements)
** Current wind speed in m/s (hover to see current wind gust speed)